Flag for Canada Weather past 2 weeks in Maple Ridge, British Columbia, Canada

Now
60 °F

Cool.


Feels Like: 58 °F
Forecast: 54 / 62 °F
Wind: 10 mph from South

Location: P. Meadows Coastal Station

Current Time: Sep 1, 2015 at 1:07:51 AM

Latest Report: Sep 1, 2015 at 12:00 AM


Visibility: N/A

Pressure: 29.80 "Hg

Humidity: 94%

Dew point: 58 °F

Location of Maple RidgeLocation

Historic Weather in Maple Ridge — Graph

°F

Maple Ridge temperature yesterday

Maximum temperature yesterday: 60 °F (at 3:00 PM)
Minimum temperature yesterday: 57 °F (at 1:00 AM)
Average temperature yesterday: 59 °F

Past Weeks' High & Low Weather Summary

 TemperatureHumidityPressure
High88 °F (Aug 18, 5:00 PM)99% (Aug 22, 2:00 AM)30.15 "Hg (Aug 22, 2:00 AM)
Low50 °F (Aug 25, 5:00 AM)24% (Aug 27, 4:00 PM)29.46 "Hg (Aug 29, 6:00 AM)
Average65 °F70%29.94 "Hg
* Reported Midnight between Aug 16 and Aug 17 — Midnight between Aug 31 and Sep 1, Maple Ridge, Weather by CustomWeather, © 2015

Note: Actual official high and low records may vary slightly from our data, if they occured in-between our weather recording intervals... More about our weather records

Advertising

Maple Ridge weather history for previous 24 hours

 ConditionsComfort  
Time TempWeatherWind HumidityBarometerVisibility
12:00 AM
Tue, Sep 1
60 °FCool.10 mph94%29.80 "HgN/A
11:00 PM
Mon, Aug 31
60 °FCool.8 mph91%29.80 "HgN/A
10:00 PM60 °FCool.2 mph91%29.81 "HgN/A
9:00 PM58 °FCool.7 mph95%29.81 "HgN/A
8:00 PM60 °FCool.6 mph90%29.82 "HgN/A
7:00 PM60 °FCool.7 mph92%29.83 "HgN/A
6:00 PM60 °FCool.6 mph92%29.85 "HgN/A
5:00 PM60 °FCool.7 mph86%29.85 "HgN/A
4:00 PM60 °FCool.9 mph92%29.85 "HgN/A
3:00 PM60 °FCool.8 mph91%29.85 "HgN/A
2:00 PM60 °FCool.7 mph90%29.86 "HgN/A
1:00 PM60 °FCool.8 mph91%29.86 "HgN/A
12:00 PM59 °FCool.7 mph91%29.88 "HgN/A
11:00 AM59 °FCool.7 mph88%29.88 "HgN/A
10:00 AM58 °FCool.8 mph90%29.87 "HgN/A
9:00 AM58 °FCool.7 mph90%29.87 "HgN/A
8:00 AM58 °FCool.10 mph90%29.85 "HgN/A
7:00 AM58 °FCool.10 mph90%29.85 "HgN/A
6:00 AM58 °FCool.6 mph90%29.85 "HgN/A
5:00 AM58 °FCool.7 mph89%29.86 "HgN/A
4:00 AM58 °FCool.2 mph87%29.87 "HgN/A
3:00 AM57 °FCool.1 mph95%29.87 "HgN/A
2:00 AM57 °FCool.5 mph96%29.88 "HgN/A
1:00 AM57 °FCool.6 mph95%29.89 "HgN/A
Weather by CustomWeather, © 2015

See weather overviewHow to use our weather pages